Simultaneous Nadir Overpasses (SNOs) Predictions

Prediction of SNOs between LANDSAT-8 and TERRA Satellite Orbit:

Table of predicted SNOs for the next 14.0 days since TLE Epoch: 11/8/2025
Index Date (LANDSAT-8) Time (LANDSAT-8) Lat,Lon (LANDSAT-8) SZA (LANDSAT-8 ) Date (TERRA) Time (TERRA) Lat,Lon (TERRA) SZA (TERRA ) Distance(km) Time Diff (sec)
1 11/14/2025 23:10:09 -81.83, 73.58 75.15 11/14/2025 23:11:21 -81.82, 73.56 75.12 0.72 72
2 11/14/2025 23:59:36 81.83,-119.08 104.83 11/15/2025 00:00:41 81.83,-118.90 104.88 2.75 65
3 11/15/2025 00:49:02 -81.83, 48.86 75.13 11/15/2025 00:49:59 -81.83, 48.78 75.11 1.29 57
4 11/15/2025 01:38:29 81.83,-143.79 104.85 11/15/2025 01:39:19 81.83,-143.68 104.89 1.85 50
5 11/15/2025 02:27:55 -81.83, 24.15 75.11 11/15/2025 02:28:37 -81.83, 24.01 75.11 2.24 42
6 11/15/2025 03:17:21 81.83,-168.08 104.92 11/15/2025 03:17:56 81.82,-168.04 104.94 1.15 35
7 11/15/2025 04:06:48 -81.83, -0.56 75.09 11/15/2025 04:07:15 -81.83, -0.76 75.10 3.25 27
8 11/15/2025 04:56:14 81.83, 167.21 104.94 11/15/2025 04:56:34 81.82, 167.19 104.94 0.57 20
9 11/15/2025 05:45:41 -81.83, -25.28 75.08 11/15/2025 05:45:52 -81.82, -25.12 75.05 2.50 11
10 11/15/2025 06:35:07 81.83, 142.49 104.95 11/15/2025 06:35:12 81.83, 142.41 104.95 1.25 5
11 11/15/2025 07:24:34 -81.83, -49.99 75.06 11/15/2025 07:24:30 -81.83, -49.90 75.05 1.50 4
12 11/15/2025 08:14:00 81.83, 117.78 104.97 11/15/2025 08:13:50 81.83, 117.64 104.95 2.25 10
13 11/15/2025 09:03:27 -81.83, -74.71 75.04 11/15/2025 09:03:08 -81.83, -74.67 75.05 0.68 19
14 11/15/2025 09:52:53 81.83, 93.06 104.99 11/15/2025 09:52:28 81.84, 92.86 104.95 3.28 25
15 11/15/2025 10:42:20 -81.83, -99.42 75.02 11/15/2025 10:41:46 -81.84, -99.45 75.04 0.93 34
16 11/15/2025 11:31:46 81.83, 68.35 105.01 11/15/2025 11:31:05 81.83, 68.51 105.00 2.50 41
17 11/15/2025 12:21:12 -81.83,-123.71 74.95 11/15/2025 12:20:23 -81.82,-123.80 74.99 1.61 49
18 11/15/2025 13:10:39 81.83, 43.63 105.02 11/15/2025 13:09:43 81.83, 43.73 105.01 1.53 56
19 11/15/2025 14:00:05 -81.83,-148.42 74.93 11/15/2025 13:59:01 -81.83,-148.58 74.99 2.48 64



Historial Predications of SNOs between LANDSAT-8 and TERRA
